Location: Doschendorf
(50.0069°N, 11.0602°E)
Time: 03:08:09
(UTC+00:00)

Cosmos 1932 - Pass Details

Date: 17 November 2019
Orbit: 923 x 1006 km, 65.0° (Epoch: 04 December)

Event Time Altitude Azimuth Distance (km) Brightness Sun altitude
Rises 17:07:28 0° 319° (NW) 3,723 8.0 -15.5°
Reaches altitude 10° 17:10:03 10° 321° (NW) 2,778 7.2 -15.9°
Maximum altitude 17:16:38 81° 49° (NE) 1,023 4.5 -17.0°
Drops below altitude 10° 17:23:12 10° 137° (SE) 2,776 6.6 -18.0°
Enters shadow 17:24:03 - 138° (SE) 3,088 6.8 -18.2°
